This is the latest recevied weather packets stored in our database for station/object SV9TNF-1. If no packets are shown the sender has not sent any weather packets the latest 10 day(s).
| Time | Temp. | Humidity | Pressure | Rain* | Wind** | Luminosity | Snow |
|---|---|---|---|---|---|---|---|
| 1777875916 | 15.56° C | 53% | 1008.1 hPa | 0 mm | 3.58 m/s, 99° | - | - |
| 1777875616 | 15.56° C | 56% | 1008.1 hPa | 0 mm | 7.6 m/s, 100° | - | - |
| 1777875316 | 15° C | 56% | 1008.1 hPa | 0 mm | 5.36 m/s, 346° | - | - |
| 1777875016 | 15.56° C | 59% | 1008.1 hPa | 0 mm | 4.92 m/s, 181° | - | - |
| 1777874716 | 15° C | 57% | 1008.1 hPa | 0 mm | 8.94 m/s, 231° | - | - |
| 1777874416 | 15° C | 58% | 1007.8 hPa | 0 mm | 5.81 m/s, 271° | - | - |
| 1777874116 | 15° C | 57% | 1007.8 hPa | 0 mm | 6.26 m/s, 315° | - | - |
| 1777873815 | 15° C | 57% | 1007.8 hPa | 0 mm | 8.94 m/s, 320° | - | - |
| 1777873515 | 14.44° C | 58% | 1007.8 hPa | 0 mm | 8.05 m/s, 204° | - | - |
| 1777873216 | 14.44° C | 59% | 1007.8 hPa | 0 mm | 3.13 m/s, 159° | - | - |
| 1777872915 | 14.44° C | 60% | 1007.8 hPa | 0 mm | 3.13 m/s, 158° | - | - |
| 1777872616 | 14.44° C | 61% | 1007.8 hPa | 0 mm | 4.02 m/s, 326° | - | - |
| 1777872315 | 14.44° C | 61% | 1007.8 hPa | 0 mm | 6.26 m/s, 337° | - | - |
| 1777872015 | 14.44° C | 61% | 1007.8 hPa | 0 mm | 3.58 m/s, 310° | - | - |
| 1777871716 | 13.89° C | 63% | 1007.8 hPa | 0 mm | 6.26 m/s, 88° | - | - |
| 1777871415 | 13.89° C | 62% | 1007.8 hPa | 0 mm | 4.47 m/s, 314° | - | - |
| 1777871115 | 13.33° C | 63% | 1007.8 hPa | 0 mm | 3.13 m/s, 329° | - | - |
| 1777870815 | 13.33° C | 63% | 1007.5 hPa | 0 mm | 2.68 m/s, 166° | - | - |
| 1777870514 | 13.33° C | 65% | 1007.5 hPa | 0 mm | 1.79 m/s, 284° | - | - |
| 1777870214 | 13.33° C | 68% | 1007.5 hPa | 0 mm | 0 m/s | - | - |
| 1777869914 | 13.33° C | 67% | 1007.5 hPa | 0 mm | 2.24 m/s, 144° | - | - |
| 1777869614 | 13.33° C | 63% | 1007.5 hPa | 0 mm | 1.79 m/s, 92° | - | - |
| 1777869314 | 12.78° C | 66% | 1006.8 hPa | 0 mm | 6.26 m/s, 10° | - | - |
| 1777869014 | 12.78° C | 67% | 1006.8 hPa | 0 mm | 1.79 m/s, 162° | - | - |
| 1777868714 | 12.78° C | 65% | 1006.8 hPa | 0 mm | 3.58 m/s, 124° | - | - |
* Rain latest hour (hover to see other rain measurements)
** Current wind speed in m/s (hover to see current wind gust speed)